Location: Athabasca
(54.7194°N, 113.2858°W)
Time: 21:51:50
(UTC+00:00)

PEGASUS DEB - Visible Passes

Search period start: 27 May 2024 00:00
Search period end: 06 June 2024 00:00
Orbit: 542 x 744 km, 81.6° (Epoch: 25 May)

Date Brightness Start Highest point End Pass type
(mag) Time Alt. Az. Time Alt. Az. Time Alt. Az.
27 May ? 05:56:42 10° NNW 06:01:30 56° W 06:05:28 13° S visible
28 May ? 04:43:08 10° N 04:47:51 44° ENE 04:52:16 10° SE visible
28 May ? 06:21:57 10° NNW 06:26:10 30° W 06:30:10 10° SSW visible
29 May ? 05:07:57 10° NNW 05:12:51 81° ENE 05:17:25 10° SSE visible
29 May ? 06:47:36 10° NW 06:50:38 17° W 06:53:34 10° WSW visible
30 May ? 05:32:57 10° NNW 05:37:39 55° W 05:42:03 10° S visible
31 May ? 05:58:09 10° NNW 06:02:16 29° W 06:06:09 10° SSW visible
01 Jun ? 04:44:07 10° NNW 04:48:55 81° ENE 04:53:23 10° SSE visible
01 Jun ? 06:23:48 10° NW 06:26:42 16° W 06:29:29 10° WSW visible
02 Jun ? 05:09:04 10° NNW 05:13:41 54° W 05:18:00 10° S visible
03 Jun ? 05:34:14 10° NNW 05:38:15 29° W 05:42:03 10° SSW visible
04 Jun ? 05:59:53 10° NW 06:02:38 16° W 06:05:19 10° WSW visible
